www.pogodaiklimat.ru

Погода и климат >> Архив погоды >> Россия >> Чукотка >> Мыс Ванкарем


ПОГОДА на Мысе Ванкарем

  • Прогноз погоды на Мысе Ванкарем
  • Монитор погоды на Мысе Ванкарем
  • Климат города

АРХИВ ПОГОДЫ на Мысе Ванкарем

Время (UTC), дата Ветер
(напр.,м/с)
 
Видим.   Явления Облачность Т
(С)
Тd
(С)
f
(%)
Тe
(С)
Тes
(С)
Комфортность P
(гПа)
Po
(гПа)
Тmin
(С)
Tmax
(С)
R
(мм)
S
(см)
03 16.03 ЮВ 3
{5}
20 км ясно -14.5 -19.1 68 -21 -20 1022.7 1022.0
06 16.03 ЮВ 5
{7}
20 км 3/0
[Ac lent]
-16.7 -20.1 75 -26 -26 1021.8 1021.1 -14.5
09 16.03 Ю 3
{6}
20 км ясно -17.3 -21.5 70 -24 -24 1021.1 1020.4
12 16.03 Ю 5
{7}
20 км ясно -18.7 -22.8 70 -28 -28 1020.2 1019.5
15 16.03 ЮЗ 5
{7}
20 км ясно -19.5 -23.6 70 -29 -29 1019.7 1019.0
18 16.03 ЮЗ 5
{7}
20 км ясно -19.1 -23.2 70 -29 -29 1019.2 1018.5 -20.5
21 16.03 Ю 2
{6}
20 км 3/0
[Ac lent]
-18.5 -21.8 75 -24 -23 1018.7 1018.0
00 17.03 ЮЗ 1
{3}
20 км ясно -15.2 -19.3 71 -18 -14 1020.0 1019.4
03 17.03 Ю 2
{4}
20 км ясно -14.1 -18.4 70 -19 -18 1021.6 1021.0
06 17.03 ЮЗ 2
{4}
20 км ясно -17.2 -20.6 75 -23 -23 1021.6 1021.0 -13.0
09 17.03 З 2
{4}
20 км ясно -17.8 -21.1 75 -23 -23 1021.9 1021.2
12 17.03 Ю 2
{3}
20 км ясно -18.5 -21.8 75 -24 -24 1022.3 1021.6
15 17.03 Ю 2
{3}
20 км ясно -19.7 -23.0 75 -25 -25 1022.4 1021.7
18 17.03 Ю 2
{4}
20 км ясно -20.5 -24.5 70 -26 -26 1022.6 1021.9 -20.5
21 17.03 Ю 3
{5}
20 км 4/0
[Ac lent]
-21.0 -25.0 70 -29 -28 1021.6 1020.9
00 18.03 Ю 2
{4}
20 км ясно -18.4 -21.7 75 -24 -21 1020.9 1020.2
03 18.03 ЮВ 2
{4}
20 км ясно -17.0 -20.4 75 -22 -21 1020.8 1020.2
06 18.03 Ю 2
{4}
20 км ясно -18.9 -23.0 70 -25 -25 1021.4 1020.7 -17.0
09 18.03 Ю 2
{4}
20 км ясно -19.8 -23.9 70 -26 -26 1022.0 1021.3
12 18.03 З 2
{4}
20 км ясно -20.2 -23.5 75 -26 -26 1022.3 1021.6
15 18.03 З 2
{4}
20 км ясно -21.3 -24.6 75 -27 -27 1022.7 1022.0
18 18.03 З 2
{4}
20 км ясно -19.8 -23.1 75 -26 -26 1022.9 1022.2 -21.3
21 18.03 З 1
{3}
20 км 10/5 600 м
[Sc Ac und]
-16.2 -18.8 80 -19 -19 1022.8 1022.2
00 19.03 Ю 1
{3}
20 км ясно -17.6 -21.0 75 -20 -17 1021.7 1021.0
03 19.03 ЮВ 3
{5}
20 км 8/0
[Ac lent Cc]
-17.5 -20.9 75 -25 -24 1020.9 1020.2
06 19.03 Ю 3
{5}
20 км 10/0
[Ac lent Cc]
-20.7 -24.7 70 -28 -28 1019.5 1018.8 -16.2
09 19.03 Ю 4
{6}
20 км ясно -20.9 -24.9 70 -30 -30 1018.5 1017.9
12 19.03 Ю 4
{6}
20 км ясно -21.5 -24.7 75 -31 -31 опасность
обморожения
1017.8 1017.1
15 19.03 З 4
{6}
20 км ясно -20.8 -24.8 70 -30 -30 1017.1 1016.4
18 19.03 З 4
{6}
20 км 6/0
[Ac lent]
-20.4 -23.7 75 -29 -29 1018.5 1017.8 -23.0
21 19.03 З 5
{7}
20 км 8/3 600 м
[Sc Ac lent]
-16.9 -20.3 75 -26 -26 1020.6 1019.9
00 20.03 СЗ 8
{10}
20 км позёмок {метель} 3/3 600 м
[Sc]
-17.7 -20.3 80 -29 -29 1021.9 1021.2
03 20.03 З 5
{9}
20 км {метель} ясно -16.0 -19.4 75 -25 -24 1023.1 1022.5
06 20.03 ЮЗ 4
{6}
20 км {метель} ясно -17.4 -20.8 75 -26 -26 1024.6 1023.9 -16.0
09 20.03 ЮЗ 4
{6}
20 км ясно -19.7 -23.8 70 -29 -29 1025.4 1024.7
12 20.03 ЮЗ 2
{5}
20 км ясно -20.9 -24.2 75 -27 -27 1025.8 1025.1
15 20.03 ЮЗ 3
{6}
20 км ясно -22.4 -26.3 70 -30 -30 1026.2 1025.5
18 20.03 Ю 2
{5}
20 км 3/0
[Ac lent]
-21.9 -25.9 70 -28 -28 1026.7 1026.0 -22.4
21 20.03 Ю 4
{6}
20 км 4/0
[Ac lent]
-19.8 -23.9 70 -29 -28 1025.7 1025.0
00 21.03 Ю 3
{5}
20 км ясно -18.0 -21.4 75 -25 -22 1024.9 1024.2
03 21.03 Ю 3
{5}
20 км ясно -16.2 -20.4 70 -23 -22 1024.0 1023.4
06 21.03 Ю 4
{6}
20 км 9/6 600 м
[Sc Ci fib]
-19.2 -22.5 75 -28 -28 1023.5 1022.8 -16.2
09 21.03 Ю 5
{7}
20 км 8/3 600 м
[Sc Ci fib]
-20.5 -23.0 80 -31 -31 опасность
обморожения
1023.1 1022.4
12 21.03 Ю 5
{7}
20 км ясно -21.3 -24.6 75 -32 -32 опасность
обморожения
1022.7 1022.0
15 21.03 Ю 4
{6}
20 км ясно -22.4 -25.6 75 -32 -32 опасность
обморожения
1022.5 1021.8
18 21.03 Ю 5
{8}
20 км ясно -21.0 -24.3 75 -31 -31 опасность
обморожения
1021.2 1020.5 -23.3
21 21.03 Ю 6
{8}
20 км 9/6 600 м
[Sc Ac lent]
-18.5 -21.9 75 -29 -29 1020.4 1019.7
00 22.03 Ю 6
{8}
20 км 10/4 600 м
[Sc Ac und]
-14.6 -17.3 80 -24 -24 1019.9 1019.3
03 22.03 ЮЗ 5
{8}
20 км 6/0
[Ac und Ci fib]
-12.3 -15.0 80 -20 -20 1019.1 1018.5
06 22.03 З 4
{7}
20 км 4/0
[Ci fib]
-14.9 -18.3 75 -23 -23 1019.1 1018.5 -12.0
09 22.03 З 2
{5}
20 км ясно -17.0 -21.2 70 -22 -22 1019.8 1019.2
12 22.03 ЮЗ 2
{4}
20 км ясно -18.2 -22.3 70 -24 -24 1020.5 1019.8
15 22.03 ЮЗ 2
{3}
20 км ясно -19.5 -22.8 75 -25 -25 1020.9 1020.2
18 22.03 Ю 2
{4}
20 км ясно -19.0 -23.1 70 -25 -25 1021.6 1020.9 -19.7
21 22.03 Ю 4
{6}
20 км ясно -18.7 -22.8 70 -27 -26 1019.9 1019.2

 

Местоположение метеостанции Мыс Ванкарем (Чукотка, Россия): широта 67.83 долгота -175.00 высота над уровнем моря 5 м.

В архиве по умолчанию представлена погода на Мысе Ванкарем за последнюю неделю. Архивные данные за месяц целиком и за предыдущие месяцы, начиная с января 2011 года, Вы можете получить, выбрав интересующий диапазон дат из раскрывающегося списка и нажав кнопку "Ввод!".

Внимание! Время в таблицах - всемирное. Для получения местного времени необходимо прибавить поправку, которая на Мысе Ванкарем равна 12 ч.

Смотрите также архив погоды в соседних городах и на ближайших метеорологических станциях:

Погода в Эгвекиноте (Чукотка, Россия) (239 км)
Погода в Уэлене (Чукотка, Россия) (320 км)
Погода на Острове Врангеля (Чукотка, Россия) (369 км)

Пояснения к столбцам:

Ветер - указаны скорость ветра в м/с - средняя за 10 мин, порывы в срок и между сроками (в фигурных скобках) и направление, откуда дует ветер: С - северный, СВ - северо-восточный, В - восточный, ЮВ - юго-восточный, Ю - южный, ЮЗ - юго-западный, З - западный, СЗ - северо-западный.
Видимость - горизонтальная дальность видимости в метрах или километрах. При видимости от 1 до 10 км при отсутствии осадков обычно наблюдается дымка, при ухудшении видимости до 1 км и менее - туман. В сухую погоду видимость может ухудшаться дымом, пылью или мглою.
Явления - указаны атмосферные явления, наблюдавшиеся в срок или в последний час перед сроком; фигурными скобками обозначены явления, наблюдавшиеся между сроками (за 1-3 часа до срока); квадратными скобками обозначены град или гололедные отложения с указанием их диаметра в мм.
Облачность - указаны через наклонную черту общая и нижняя облачность в баллах и высота нижней границы облаков в метрах; квадратными скобками обозначены формы облаков: Ci - перистые, Cs - перисто-слоистые, Cc - перисто-кучевые, Ac - высококучевые, As - высокослоистые, Sc - слоисто-кучевые, Ns - слоисто-дождевые, Cu - кучевые, Cb - кучево-дождевые. Подробнее классификацию облаков см. в Атласе облаков (PDF).
T - Температура воздуха - температура, измеренная на высоте 2 м над землей.
Td - Температура точки росы - температура, при понижении до которой содержащийся в воздухе водяной пар достигнет насыщения.
f - Относительная влажность воздуха - влажноcть воздуха, измеренная на высоте 2 м над землей.
Te - Эффективная температура - температура, которую ощущает одетый по сезону человек в тени. Характеристика душности погоды. При расчете учитывается влияние влажности воздуха и скорости ветра на теплоощущения человека.
Tes - Эффективная температура на солнце - температура, которую ощущает человек, с поправкой на солнечный нагрев. Характеристика знойности погоды. Зависит от высоты солнца над горизонтом, облачности и скорости ветра. Ночью, в пасмурную погоду, а также при ветре 12 м/с и более поправка равна нулю.
P - Атмосферное давление - приведенное к уровню моря атмосферное давление.
Po - Атмосферное давление - измеренное на уровне метеостанции атмосферное давление.
Tmin - Минимальная температура - минимум температуры воздуха на высоте 2 м над землей.
Tmax - Максимальная температура - максимум температуры воздуха на высоте 2 м над землей.
R - Количество осадков - Количество выпавших осадков, мм. При наведении курсора мыши на число - период времени, за который выпало указанное количество осадков.
S - Снежный покров - Высота снежного покрова, см. При наведении курсора мыши на число - состояние снежного покрова и степень покрытия местности в баллах.